{"data":{"norad_id":63199,"epoch":"2026-05-25T00:05:16.794240Z","epoch_age_seconds":74107,"freshness":"FRESH","line1":"1 63199U 25048S   26145.00366660  .00016696  00000+0  61516-3 0  9991","line2":"2 63199  43.0010  14.3192 0001262 268.9596  91.1111 15.27564828 68763","mean_motion":15.27564828,"eccentricity":0.0001262,"inclination_deg":43.001,"raan_deg":14.3192,"arg_perigee_deg":268.9596,"mean_anomaly_deg":91.1111,"bstar":0.00061516,"rev_number":6876,"period_min":94.267684984954,"perigee_km":482.22863942308,"apogee_km":483.96041426046,"semimajor_km":6861.2315268418,"source":"CELESTRAK","updated_at":"2026-05-25T13:38:19.922532Z"}}